FENGYUN 1C DEB

Satellite information

Favourite Embed

Satellite Type and Status

DEBRISIN ORBIT

Key statistics

Satellite FENGYUN 1C DEB at a glance.

Uptime

9717

Days in orbit

Revolutions

≈ 13.8

Per day

Orbit

SSO

Sun Synchronous Orbit

Inclination

98.6

Latest

Satellite identification and parameters

Extended collection of information and parameters for FENGYUN 1C DEB.

Object identification

Identified? True

Debris? True

Object name: FENGYUN 1C DEB

International designator: 1999-025BKC

Object number (NORAD): 31198

Object ID (CCSDS): 31198

Country: PEOPLES REPUBLIC OF CHINA (PRC)

Current information (Y/N): Y

RCS size: SMALL

Orbital parameters

Period: 104.688 minutes

Inclination: 98.6127 deg

SMA: 7357.951 km

Apoapsis: 1129.757 km

Periapsis: 829.874 km

RAAN: 91.8443 deg

Eccentricy: 0.02037814

Argument of periapsis: 347.8728 deg

Mean anomaly: 11.7559 deg

Mean motion: 13.75521732 rev/day

Mean motion (dot): 0.00000094 rev/day2

B* drag term: 0.00011907097 1/REarth

Two-line elements (TLE)

Creation date: Dec. 14, 2025, 6:24 p.m.

Reference frame: TEME

Reference center: EARTH

Epoch: Dec. 14, 2025, 2:35 a.m. UTC

TLE line 0: 0 FENGYUN 1C DEB

TLE line 1: 1 31198U 99025BKC 25348.10788415 .00000094 00000-0 11907-3 0 9997

TLE line 2: 2 31198 98.6127 91.8443 0203781 347.8728 11.7559 13.75521732627724

Live tracking on map

Real-time ground track for satellite FENGYUN 1C DEB.

In-orbit conjunctions

A list of the most updated potential collisions computed for object FENGYUN 1C DEB.

Target Orbit TCA Probability of collision Miss distance Type
COSMOS 2034 LEO 2025-12-07 16:30:22 0.0009361428 318.0 (m) PAYLOAD

Associated space launch

Chinese polar orbiting meteorological satellite

FENGYUN 1C DEB was lifted into orbit during the mission ‘Long March 4B | Feng Yun 1C’, on board a Long March 4B space rocket.

The launch took place on May 10, 1999, 1:33 a.m. from Launch Complex 7.

For more information about the launch, click the button.

Launch to space Long March 4B | Feng Yun 1C
Long March 4B | Feng Yun 1C

Agency: N/A

Status: Launch Successful

Launch date: May 10, 1999, 1:33 a.m. UTC

Rocket: Long March 4B

Launch pad: Launch Complex 7

Location: Taiyuan Satellite Launch Center, People's Republic of China

...

Latest news about this satellite

There are no fresh news available about this satellite. Check back as we update our databases every day.


Newsletter sign-up

Weekly statistics, charts and insights to help you stay on top of the space industry.